Tracking 19638 objects as of 20-Apr-2019
HD Live streaming from Space Station
objects crossing your sky now

COSMOS 877

Track COSMOS 877 now!
10-day predictions
COSMOS 877 is classified as:


NORAD ID: 9594
Int'l Code: 1976-118G
Perigee: 1,461.2 km
Apogee: 1,471.2 km
Inclination: 74.0 °
Period: 115.1 minutes
Semi major axis: 7837 km
RCS: 0.6978 m2 (medium)
Launch date: December 7, 1976
Source: Commonwealth of Independent States (former USSR) (CIS)
Launch site: PLESETSK MISSILE AND SPACE COMPLEX (PKMTR)
aabbcc
Your satellite tracking list
Your tracking list is empty




NASA's NSSDC Master Catalog

Two Line Element Set (TLE):
1  9594U 76118G   19110.53965269  .00000007  00000-0  14932-3 0  9996
2  9594  74.0288 152.9125 0006416 198.7142 312.9562 12.51296680935423
Source of the keplerian elements: AFSPC